GFSNW_700_temp_000.txt.gz
Temp
-11 -9 -8 -7 -6 -6 -5 -5 -3 -3 -4 -5 -5 -4 -4 -3 -3 -3 -4 -3 -3 -3 -3 -3 -4 -4 -3 -3 -3 -4 -4 -4 -4 -4 -3 -3 -4 -4 -3 -1 -1 -1 -2 1
-10 -9 -8 -7 -5 -5 -5 -4 -3 -3 -4 -4 -4 -3 -4 -4 -4 -3 -3 -3 -3 -3 -3 -3 -3 -3 -2 -3 -3 -4 -4 -4 -4 -3 -4 -4 -3 -3 -2 -1 -0 -2 -1 1
-10 -9 -8 -7 -5 -4 -4 -4 -3 -4 -4 -4 -4 -3 -4 -4 -3 -3 -3 -3 -3 -3 -3 -3 -3 -2 -2 -3 -4 -4 -4 -4 -4 -3 -2 -3 -2 -3 -2 -2 -1 -1 -1 -0
-10 -9 -9 -7 -6 -4 -4 -3 -4 -3 -4 -4 -3 -3 -4 -3 -3 -3 -3 -3 -3 -3 -3 -3 -2 -2 -2 -3 -3 -4 -4 -4 -4 -3 -3 -3 -1 -1 -1 -2 -1 -1 0 1
-10 -9 -7 -7 -5 -4 -4 -3 -3 -3 -3 -3 -3 -4 -3 -4 -3 -3 -3 -3 -3 -3 -3 -2 -2 -2 -2 -3 -3 -3 -4 -3 -3 -3 -0 -1 -1 -0 -1 -0 -1 -1 -1 2
-10 -9 -8 -6 -5 -4 -4 -3 -3 -3 -3 -3 -3 -3 -3 -3 -3 -3 -2 -2 -3 -2 -2 -2 -2 -2 -2 -3 -3 -3 -3 -3 -2 -1 -0 -0 0 -0 -0 -0 -1 -1 -0 2
-10 -10 -7 -6 -6 -4 -4 -3 -3 -3 -3 -3 -3 -3 -3 -3 -3 -3 -3 -2 -2 -3 -2 -3 -2 -2 -1 -2 -2 -2 -3 -3 -2 -1 -0 -0 2 2 1 2 1 1 3 5
-10 -9 -7 -6 -6 -4 -3 -4 -4 -3 -3 -3 -3 -3 -3 -3 -3 -3 -3 -3 -3 -3 -2 -2 -2 -2 -2 -1 -2 -1 -1 -2 -1 0 1 2 3 2 1 1 1 3 4 5
-9 -9 -7 -6 -5 -4 -4 -3 -4 -4 -3 -3 -3 -3 -3 -3 -3 -3 -3 -3 -3 -2 -2 -2 -2 -2 -1 -1 -1 -1 -1 -1 -1 0 -0 2 3 3 4 4 4 4 4 4
-10 -10 -8 -5 -6 -4 -4 -4 -3 -3 -3 -3 -3 -3 -3 -3 -3 -3 -2 -2 -2 -2 -2 -1 -2 -2 -1 -1 -1 -1 -1 -1 -1 -1 -1 2 3 3 3 3 4 5 4 4
-10 -9 -6 -6 -5 -4 -4 -4 -3 -4 -3 -3 -3 -3 -2 -3 -3 -3 -3 -3 -2 -2 -2 -2 -1 -2 -1 -1 -0 -0 -1 -0 -1 -1 -1 -0 3 3 3 4 4 4 4 4
-10 -9 -6 -6 -5 -5 -5 -4 -4 -4 -4 -4 -3 -3 -2 -3 -3 -3 -3 -3 -2 -2 -2 -2 -1 -1 -1 -2 -0 -0 -0 0 -0 0 2 2 2 2 3 3 4 4 4 4
-10 -9 -7 -6 -5 -5 -4 -4 -5 -3 -4 -3 -3 -3 -3 -3 -3 -2 -3 -3 -2 -2 -2 -1 -1 -1 -0 -0 -1 0 0 0 -0 0 2 2 2 2 3 3 3 4 4 3
-11 -10 -7 -6 -5 -4 -4 -4 -4 -4 -4 -4 -3 -3 -2 -2 -2 -2 -3 -2 -2 -1 -2 -2 -1 -1 0 0 1 1 1 0 -0 0 1 2 2 2 2 2 3 3 3 3
-11 -10 -7 -6 -5 -5 -4 -4 -4 -4 -4 -4 -3 -3 -2 -2 -1 -3 -3 -3 -2 -1 -1 -1 -1 -1 0 0 0 1 2 2 1 2 2 2 2 2 2 2 2 2 2 2
-11 -11 -9 -7 -5 -5 -5 -4 -4 -4 -4 -4 -3 -2 -2 -2 -2 -2 -2 -2 -2 -2 -1 -2 -1 -1 -1 -0 -0 1 1 1 1 2 1 1 1 2 1 1 1 1 1 0
-11 -10 -9 -7 -6 -4 -4 -4 -4 -4 -3 -4 -4 -3 -2 -2 -2 -3 -2 -3 -2 -2 -2 -1 -2 -1 -1 -1 -1 1 1 1 0 1 1 1 2 2 1 1 1 1 0 -0
-11 -10 -8 -7 -6 -5 -4 -4 -4 -3 -3 -5 -4 -3 -3 -2 -3 -3 -2 -3 -2 -2 -2 -2 -2 -2 -2 -0 1 0 1 1 1 1 1 1 1 1 1 1 1 0 -0 -1
-10 -9 -8 -7 -6 -5 -4 -4 -4 -4 -4 -4 -4 -3 -2 -2 -4 -3 -3 -2 -3 -3 -2 -2 -2 -1 -1 1 2 2 2 1 1 1 1 1 1 1 1 0 0 -1 -1 -2
-10 -8 -7 -6 -6 -4 -4 -4 -4 -5 -5 -4 -4 -3 -2 -3 -3 -4 -3 -3 -2 -3 -2 -2 -1 -0 1 2 2 2 2 2 1 1 1 1 0 0 -0 -0 -1 -2 -2 -3
-10 -9 -8 -7 -6 -4 -4 -4 -4 -4 -4 -4 -4 -3 -3 -3 -3 -3 -3 -2 -2 -2 -2 -2 -1 2 3 2 2 2 1 1 1 1 -0 -0 -0 -0 -1 -1 -2 -2 -3 -3
-10 -9 -6 -6 -5 -4 -4 -4 -4 -4 -3 -3 -1 -2 -3 -3 -3 -3 -3 -3 -2 -2 -2 -2 -0 3 3 3 2 2 2 0 -0 0 0 -0 -1 -1 -2 -2 -3 -3 -4 -4
-9 -8 -8 -6 -5 -5 -4 -4 -4 -4 -4 -2 -1 -2 -3 -3 -3 -3 -3 -3 -3 -3 -2 -1 2 3 2 3 3 2 1 0 -1 -1 -0 -1 -1 -2 -2 -3 -3 -4 -4 -4
-9 -8 -7 -6 -5 -4 -3 -3 -3 -3 -2 -2 -1 -2 -4 -3 -3 -3 -3 -3 -3 -3 -2 1 3 3 2 2 2 2 1 0 -1 -2 -2 -1 -2 -2 -2 -4 -5 -5 -5 -4
-9 -8 -7 -6 -6 -4 -4 -4 -2 -3 -2 -1 -2 -3 -3 -3 -3 -3 -3 -3 -2 -2 1 2 2 2 2 1 1 1 1 -0 -1 -2 -2 -2 -2 -3 -3 -4 -5 -5 -4 -4
-9 -8 -7 -7 -6 -5 -4 -3 -2 -3 -2 -2 -4 -4 -4 -3 -4 -3 -3 -3 -1 2 2 2 2 2 2 2 1 1 -0 -2 -2 -2 -2 -3 -3 -4 -4 -4 -5 -5 -4 -4
-9 -8 -7 -7 -6 -5 -4 -3 -3 -3 -2 -3 -4 -4 -3 -3 -3 -3 -2 -0 1 1 1 1 1 1 2 2 1 0 -1 -3 -4 -3 -3 -4 -4 -4 -5 -5 -5 -5 -4 -5

GFSNW_700_temp_003.txt.gz
Temp
-9 -9 -10 -9 -8 -7 -6 -5 -6 -5 -4 -5 -5 -5 -3 -3 -2 -3 -3 -3 -3 -3 -3 -3 -5 -3 -3 -2 -3 -4 -5 -5 -5 -4 -4 -4 -4 -4 -4 -4 -4 -3 -2 -1
-9 -8 -9 -9 -7 -7 -6 -6 -5 -5 -4 -5 -5 -4 -3 -4 -3 -3 -3 -3 -4 -3 -4 -4 -3 -3 -2 -3 -3 -3 -4 -5 -5 -4 -4 -5 -4 -4 -4 -3 -2 -2 -3 -0
-9 -8 -8 -7 -7 -6 -5 -5 -5 -5 -5 -4 -3 -4 -4 -4 -4 -3 -3 -3 -3 -3 -4 -4 -3 -3 -2 -3 -4 -5 -5 -4 -4 -3 -3 -4 -4 -3 -4 -4 -4 -3 -2 -1
-9 -8 -7 -8 -6 -5 -5 -5 -5 -4 -6 -5 -3 -4 -4 -4 -4 -3 -3 -3 -3 -3 -4 -3 -3 -2 -2 -4 -4 -4 -4 -4 -4 -3 -4 -4 -4 -3 -3 -4 -3 -2 -2 -2
-10 -8 -7 -8 -6 -5 -5 -4 -4 -4 -3 -4 -5 -4 -3 -3 -3 -3 -3 -3 -3 -3 -4 -3 -2 -2 -3 -3 -3 -4 -3 -4 -4 -3 -3 -3 -4 -3 -3 -2 -3 -3 -2 -2
-10 -8 -7 -7 -7 -5 -4 -4 -4 -3 -2 -4 -4 -4 -3 -3 -3 -3 -3 -3 -3 -3 -3 -3 -2 -2 -3 -3 -2 -3 -3 -4 -4 -3 -1 -3 -4 -2 -2 -2 -2 -2 -2 2
-10 -8 -8 -7 -7 -5 -4 -3 -4 -4 -4 -4 -3 -3 -3 -3 -3 -3 -3 -3 -3 -2 -3 -2 -2 -2 -2 -3 -2 -2 -2 -3 -3 -2 -1 -1 -0 0 -1 -2 -1 -1 -0 0
-10 -9 -8 -7 -7 -6 -5 -4 -3 -4 -3 -3 -2 -3 -3 -3 -3 -4 -3 -3 -3 -3 -2 -3 -3 -2 -2 -2 -1 -1 -2 -2 -2 -1 -1 -0 -0 -0 -1 -1 -1 -0 0 1
-11 -9 -7 -6 -7 -5 -4 -4 -3 -3 -3 -3 -3 -3 -3 -3 -3 -3 -3 -3 -3 -3 -3 -3 -2 -3 -2 -1 -1 -1 -2 -2 -2 -1 -1 1 1 2 1 -1 -0 2 2 3
-11 -10 -8 -7 -6 -5 -4 -4 -4 -3 -3 -3 -3 -3 -3 -3 -3 -3 -3 -3 -2 -3 -3 -3 -2 -2 -1 -1 -1 -1 -1 -1 -1 -1 -1 2 1 1 1 -0 3 4 3 3
-11 -10 -8 -6 -6 -4 -4 -4 -4 -4 -3 -3 -3 -3 -3 -3 -3 -3 -3 -3 -3 -3 -2 -2 -2 -2 -1 -1 -1 -1 -1 -1 -0 -1 -0 0 2 2 2 3 4 3 3 3
-11 -10 -8 -6 -6 -5 -5 -4 -4 -3 -4 -3 -3 -3 -3 -3 -3 -3 -3 -3 -3 -2 -2 -2 -2 -2 -1 -1 -1 -0 -1 -0 0 1 1 1 2 2 3 3 3 3 3 3
-11 -10 -9 -6 -6 -5 -4 -4 -4 -4 -4 -4 -3 -4 -3 -3 -3 -3 -3 -3 -3 -2 -3 -2 -2 -1 -0 -0 -0 0 0 0 0 1 2 2 2 2 3 3 3 4 3 3
-12 -10 -9 -7 -6 -6 -5 -4 -4 -4 -4 -4 -4 -3 -3 -2 -2 -2 -3 -3 -3 -2 -2 -2 -2 -1 -0 -0 0 1 0 1 0 0 1 1 2 2 2 2 3 3 3 3
-12 -11 -10 -9 -7 -6 -5 -4 -4 -4 -4 -4 -4 -3 -2 -2 -2 -2 -2 -3 -3 -2 -2 -1 -1 -1 -1 -0 -0 1 1 1 1 1 1 1 2 2 2 2 2 2 2 2
-12 -12 -10 -9 -7 -6 -4 -4 -4 -4 -5 -4 -4 -3 -2 -2 -2 -2 -2 -3 -3 -2 -2 -1 -2 -1 -1 -1 -1 1 1 1 1 1 1 2 2 2 1 1 1 1 1 1
-12 -11 -11 -9 -7 -6 -5 -5 -4 -4 -4 -3 -4 -3 -1 -1 -2 -2 -2 -3 -3 -2 -2 -1 -1 -1 -2 -2 -1 0 1 1 1 1 1 1 1 1 1 1 1 1 1 1
-12 -11 -10 -9 -6 -6 -5 -5 -4 -4 -4 -4 -4 -4 -2 -2 -2 -3 -3 -3 -3 -2 -2 -2 -1 -1 -2 -2 0 0 -0 0 1 1 1 1 1 1 1 1 1 0 0 -0
-11 -10 -10 -8 -6 -5 -4 -4 -4 -4 -4 -4 -4 -3 -1 -2 -3 -3 -3 -3 -3 -3 -2 -2 -2 -1 -1 0 0 0 0 0 1 0 1 1 1 1 1 1 0 -0 -1 -1
-10 -10 -9 -7 -6 -5 -5 -4 -4 -4 -5 -5 -4 -4 -3 -2 -4 -4 -3 -3 -2 -3 -2 -2 -2 -0 1 1 1 1 1 1 1 1 1 1 1 1 1 0 -0 -1 -2 -2
-10 -10 -9 -8 -6 -5 -5 -4 -4 -5 -5 -4 -4 -4 -3 -3 -4 -3 -3 -2 -2 -3 -2 -2 -1 2 3 2 1 1 1 1 1 1 1 0 0 0 -0 -0 -1 -2 -2 -3
-10 -10 -8 -7 -6 -5 -5 -4 -4 -5 -4 -3 -3 -3 -3 -3 -4 -3 -3 -3 -2 -2 -3 -2 0 3 3 2 3 2 2 1 1 1 1 0 -0 -1 -1 -2 -2 -2 -3 -4
-9 -9 -8 -6 -6 -5 -5 -4 -3 -3 -3 -3 -2 -2 -3 -4 -4 -4 -3 -3 -2 -2 -2 -1 2 2 2 3 3 3 2 1 0 -0 -0 -0 -1 -1 -2 -2 -3 -3 -4 -4
-9 -9 -8 -7 -6 -6 -5 -5 -4 -3 -2 -2 -2 -2 -4 -4 -4 -3 -3 -2 -2 -2 -2 1 2 2 2 2 2 2 2 2 1 -0 -1 -1 -1 -1 -2 -2 -4 -4 -4 -5
-8 -8 -8 -7 -7 -7 -6 -5 -5 -3 -2 -2 -2 -4 -4 -4 -3 -3 -3 -3 -2 -2 1 1 1 1 2 2 2 2 2 1 0 -1 -1 -1 -2 -2 -2 -3 -4 -4 -5 -5
-8 -8 -8 -8 -7 -7 -6 -5 -3 -3 -3 -2 -4 -4 -4 -3 -3 -3 -2 -2 -0 1 2 2 2 1 1 1 1 1 1 0 -1 -2 -2 -2 -2 -2 -2 -3 -4 -5 -5 -5
-9 -8 -8 -8 -7 -7 -6 -6 -4 -3 -4 -4 -4 -4 -4 -3 -3 -3 -3 -1 1 1 1 1 1 1 1 1 1 1 0 -0 -2 -2 -2 -3 -3 -4 -4 -4 -5 -5 -5 -5

GFSNW_700_temp_006.txt.gz
Temp
-11 -9 -8 -8 -8 -8 -7 -7 -5 -5 -6 -6 -5 -4 -4 -3 -2 -2 -4 -3 -3 -3 -4 -4 -5 -3 -2 -3 -3 -4 -5 -5 -5 -5 -3 -4 -3 -3 -4 -4 -5 -4 -3 -2
-11 -10 -8 -7 -8 -7 -7 -7 -6 -5 -5 -5 -5 -4 -3 -3 -3 -3 -3 -3 -3 -3 -4 -4 -4 -3 -3 -3 -3 -3 -4 -5 -4 -4 -4 -5 -5 -4 -5 -4 -4 -4 -4 -2
-11 -10 -8 -7 -7 -7 -6 -5 -5 -6 -6 -5 -3 -3 -4 -3 -3 -3 -3 -3 -3 -4 -4 -4 -3 -3 -3 -3 -3 -4 -4 -5 -4 -4 -4 -4 -5 -5 -4 -5 -5 -4 -3 -3
-12 -10 -9 -6 -8 -6 -6 -5 -5 -6 -6 -5 -4 -3 -3 -4 -3 -3 -4 -3 -3 -3 -3 -3 -4 -3 -3 -4 -3 -4 -4 -4 -4 -4 -4 -4 -4 -4 -4 -5 -4 -5 -3 -3
-11 -10 -9 -7 -8 -6 -6 -5 -5 -5 -5 -5 -4 -3 -4 -3 -4 -4 -4 -3 -3 -3 -3 -3 -3 -3 -4 -4 -3 -3 -4 -4 -4 -4 -4 -4 -4 -3 -4 -4 -4 -4 -4 -3
-10 -9 -9 -8 -7 -6 -5 -5 -4 -5 -5 -5 -4 -3 -3 -3 -3 -4 -3 -3 -3 -3 -3 -3 -3 -3 -3 -3 -3 -3 -3 -4 -4 -3 -3 -2 -4 -4 -4 -3 -3 -3 -4 2
-10 -9 -8 -7 -7 -6 -5 -5 -5 -5 -4 -5 -3 -3 -3 -3 -4 -4 -3 -3 -3 -3 -4 -3 -3 -3 -3 -3 -2 -2 -3 -3 -3 -3 -2 -1 -1 -1 -1 -0 -1 -1 -1 1
-9 -9 -8 -7 -7 -6 -5 -5 -5 -5 -4 -3 -4 -4 -3 -4 -4 -4 -3 -3 -4 -4 -4 -3 -3 -2 -2 -1 -1 -1 -2 -2 -3 -2 -1 -1 -0 -1 1 -0 0 -0 1 1
-10 -9 -8 -6 -5 -5 -5 -4 -4 -3 -4 -3 -3 -3 -3 -3 -3 -3 -3 -3 -3 -4 -3 -3 -3 -2 -3 -1 -1 -1 -2 -2 -3 -2 -2 -1 -0 0 -1 -1 -0 1 1 1
-10 -9 -8 -7 -5 -4 -4 -4 -4 -4 -3 -3 -3 -3 -3 -3 -3 -3 -3 -3 -3 -4 -3 -3 -3 -2 -2 -1 -1 -1 -2 -2 -2 -2 -2 0 0 1 -0 0 2 3 3 3
-11 -9 -8 -7 -6 -5 -5 -4 -4 -4 -4 -3 -3 -3 -3 -3 -3 -3 -3 -3 -3 -3 -3 -3 -3 -2 -1 -1 -1 -1 -1 -1 -1 -2 -1 -0 1 1 1 2 3 3 3 3
-11 -11 -9 -8 -7 -6 -5 -4 -4 -4 -4 -4 -3 -3 -3 -3 -3 -3 -3 -4 -3 -3 -3 -3 -2 -2 -2 -1 -0 -0 -0 -0 -0 -0 1 1 1 1 2 2 3 3 3 3
-12 -11 -10 -9 -7 -6 -6 -5 -5 -4 -4 -4 -3 -3 -3 -3 -4 -4 -3 -3 -3 -3 -2 -2 -2 -2 -1 -1 -0 0 0 0 -0 1 1 1 1 2 2 3 3 3 3 3
-12 -12 -11 -9 -7 -6 -6 -5 -4 -4 -4 -4 -4 -3 -3 -3 -3 -3 -3 -3 -4 -3 -3 -2 -2 -2 -1 -1 -0 0 1 1 1 1 1 1 2 2 2 2 3 3 3 3
-12 -12 -10 -10 -8 -7 -5 -5 -4 -4 -4 -4 -4 -3 -3 -3 -3 -3 -2 -3 -4 -4 -3 -3 -2 -2 -2 -1 -1 0 1 1 1 1 1 1 2 2 2 2 2 2 2 3
-12 -12 -11 -9 -8 -7 -5 -5 -5 -5 -5 -4 -4 -3 -3 -3 -3 -3 -3 -3 -3 -3 -3 -2 -2 -2 -2 -1 -1 0 1 1 1 1 1 1 1 2 2 2 2 2 2 1
-12 -12 -11 -9 -8 -7 -6 -5 -5 -5 -5 -5 -4 -3 -3 -3 -3 -3 -3 -3 -3 -3 -3 -2 -2 -1 -1 -1 -0 1 1 1 1 1 1 1 1 1 1 1 1 1 1 1
-11 -11 -11 -10 -8 -7 -6 -6 -5 -5 -5 -4 -4 -4 -3 -3 -3 -3 -3 -3 -4 -3 -3 -2 -2 -1 -2 -1 1 1 0 -0 0 1 1 1 1 1 1 1 1 1 1 0
-10 -10 -10 -10 -8 -7 -5 -5 -5 -5 -4 -4 -4 -3 -3 -2 -3 -3 -3 -3 -3 -3 -3 -3 -2 -2 -1 1 1 1 1 1 0 0 1 1 1 1 1 1 1 -0 -1 -1
-10 -10 -10 -9 -8 -6 -5 -4 -5 -5 -5 -5 -4 -3 -3 -3 -4 -4 -3 -3 -3 -3 -3 -3 -2 -1 1 1 1 1 1 1 0 1 1 1 1 1 1 1 -0 -1 -1 -1
-10 -10 -10 -10 -7 -6 -5 -5 -5 -5 -4 -4 -4 -3 -3 -3 -3 -3 -3 -3 -3 -3 -3 -3 -2 1 3 2 1 1 1 1 1 0 0 0 1 1 1 0 -0 -1 -2 -2
-9 -9 -9 -8 -8 -6 -5 -5 -4 -5 -3 -4 -3 -3 -4 -3 -3 -3 -3 -3 -2 -2 -3 -2 -0 2 2 2 2 2 1 1 1 1 1 1 1 -0 -0 -1 -1 -1 -2 -3
-9 -9 -8 -7 -6 -6 -5 -5 -5 -5 -5 -3 -2 -2 -4 -4 -4 -4 -3 -3 -3 -3 -2 -1 1 1 2 2 2 2 1 1 1 1 1 1 0 -0 -1 -1 -2 -2 -3 -4
-8 -8 -7 -7 -7 -7 -7 -6 -5 -4 -4 -2 -3 -3 -4 -4 -4 -4 -3 -2 -2 -2 -2 1 1 1 2 2 2 2 2 1 0 -0 -0 -0 -0 -1 -1 -2 -3 -3 -4 -4
-7 -7 -8 -7 -8 -7 -7 -6 -5 -4 -3 -2 -3 -4 -4 -4 -4 -4 -3 -3 -2 -1 1 1 1 1 2 2 2 2 2 1 0 -1 -1 -1 -1 -1 -2 -2 -3 -4 -4 -5
-7 -7 -8 -8 -7 -7 -6 -6 -5 -5 -5 -5 -5 -4 -4 -4 -4 -3 -2 -2 -0 1 1 1 1 1 1 2 2 1 1 0 -1 -1 -2 -2 -2 -2 -2 -3 -3 -4 -5 -5
-7 -6 -7 -8 -7 -7 -7 -6 -5 -5 -5 -5 -4 -4 -4 -4 -4 -3 -2 -1 1 1 0 0 0 1 1 1 1 1 1 0 -1 -2 -2 -2 -2 -3 -3 -4 -4 -4 -5 -5

GFSNW_700_temp_009.txt.gz
Temp
-11 -11 -10 -8 -8 -8 -8 -7 -7 -7 -6 -6 -6 -5 -4 -3 -2 -2 -2 -2 -2 -3 -4 -5 -4 -4 -2 -2 -3 -3 -3 -5 -5 -5 -4 -4 -4 -4 -4 -5 -5 -5 -4 -3
-11 -11 -9 -9 -7 -8 -7 -7 -6 -6 -6 -6 -6 -5 -4 -3 -3 -2 -2 -2 -2 -3 -3 -3 -4 -4 -3 -3 -3 -4 -4 -5 -5 -4 -4 -5 -5 -5 -5 -5 -5 -5 -5 -3
-11 -10 -9 -8 -7 -7 -6 -6 -5 -6 -6 -5 -5 -5 -4 -4 -3 -3 -2 -2 -3 -3 -4 -4 -4 -3 -3 -4 -3 -4 -4 -5 -4 -3 -3 -4 -5 -5 -5 -5 -5 -4 -4 -4
-11 -9 -8 -7 -8 -6 -6 -5 -5 -5 -6 -5 -5 -5 -4 -3 -3 -3 -3 -3 -4 -3 -4 -4 -3 -3 -4 -4 -3 -4 -5 -4 -4 -3 -4 -4 -5 -4 -4 -5 -4 -5 -3 -4
-10 -9 -9 -8 -7 -6 -5 -5 -5 -6 -5 -5 -5 -5 -4 -3 -3 -3 -3 -4 -3 -4 -4 -3 -3 -3 -3 -3 -3 -4 -4 -4 -4 -4 -3 -3 -4 -4 -5 -4 -4 -4 -4 -4
-9 -9 -9 -8 -7 -6 -6 -5 -5 -5 -5 -5 -4 -4 -3 -3 -3 -3 -3 -3 -3 -3 -3 -3 -3 -3 -2 -4 -4 -4 -4 -4 -4 -3 -3 -3 -3 -2 -4 -4 -4 -4 -4 -0
-9 -9 -8 -8 -7 -6 -6 -5 -5 -5 -5 -4 -3 -4 -4 -3 -3 -3 -4 -4 -4 -3 -4 -4 -3 -2 -3 -3 -3 -4 -4 -3 -3 -3 -2 -2 -1 -2 -1 -1 -3 -3 -2 -0
-8 -9 -8 -8 -7 -6 -5 -5 -5 -6 -5 -5 -4 -4 -3 -4 -4 -3 -3 -4 -4 -4 -4 -3 -3 -2 -3 -1 -1 -2 -3 -4 -3 -3 -3 -1 -1 -1 -1 -0 1 -0 1 -1
-10 -8 -8 -8 -7 -5 -5 -5 -6 -5 -5 -4 -4 -3 -3 -3 -4 -4 -3 -3 -4 -4 -4 -3 -3 -2 -2 -2 -2 -1 -1 -3 -3 -3 -2 -1 0 -1 0 -1 1 0 2 1
-11 -9 -8 -8 -7 -5 -5 -4 -4 -4 -4 -3 -3 -3 -3 -3 -3 -4 -3 -3 -3 -4 -3 -3 -3 -2 -2 -2 -1 -2 -3 -2 -2 -2 -2 -0 1 0 -0 1 1 2 3 2
-11 -10 -9 -8 -8 -7 -5 -4 -5 -4 -4 -3 -3 -3 -3 -2 -3 -3 -3 -4 -3 -3 -4 -4 -3 -3 -2 -2 -1 -1 -1 -1 -1 -2 -2 -1 1 1 1 1 2 3 3 3
-12 -11 -10 -9 -8 -7 -5 -5 -5 -4 -4 -4 -4 -3 -3 -3 -4 -4 -4 -3 -3 -3 -3 -3 -3 -3 -3 -2 -1 -0 -1 -0 -0 -0 1 1 1 1 2 2 2 3 3 3
-11 -11 -10 -9 -8 -7 -6 -5 -4 -4 -4 -4 -4 -3 -3 -3 -4 -3 -4 -3 -3 -3 -4 -3 -3 -3 -2 -2 -1 -0 0 -0 0 0 1 1 1 1 2 2 3 3 3 3
-11 -11 -11 -10 -8 -7 -7 -6 -5 -5 -5 -4 -3 -3 -3 -3 -4 -3 -3 -3 -3 -3 -4 -4 -3 -3 -2 -1 -1 -0 -0 0 1 1 1 1 1 1 2 2 3 3 3 3
-12 -12 -11 -10 -9 -7 -7 -6 -5 -4 -5 -4 -4 -3 -3 -3 -3 -3 -3 -3 -3 -4 -3 -4 -3 -3 -2 -1 -1 0 0 1 1 1 1 0 1 1 2 2 3 3 2 2
-12 -11 -11 -11 -9 -8 -6 -5 -4 -6 -5 -4 -4 -4 -3 -3 -3 -3 -2 -3 -3 -3 -4 -4 -4 -3 -3 -2 -1 1 1 1 1 1 1 0 1 1 2 2 2 2 2 1
-11 -10 -11 -11 -9 -8 -7 -6 -5 -5 -5 -4 -4 -3 -3 -3 -3 -2 -3 -3 -3 -4 -4 -4 -3 -2 -2 -2 -1 1 1 1 0 0 1 1 1 1 1 1 1 2 2 1
-10 -10 -10 -11 -9 -8 -7 -6 -5 -5 -5 -5 -4 -4 -3 -2 -3 -2 -3 -4 -3 -3 -3 -3 -3 -2 -2 -2 0 0 1 1 0 1 1 1 1 1 2 2 1 1 1 1
-10 -10 -10 -10 -9 -9 -7 -6 -6 -5 -5 -5 -5 -4 -3 -2 -4 -4 -3 -4 -3 -3 -3 -3 -3 -2 -1 1 1 1 0 0 0 0 0 0 1 1 1 1 1 0 -0 -1
-10 -10 -11 -11 -9 -8 -6 -5 -5 -5 -5 -4 -5 -4 -3 -3 -3 -4 -4 -4 -3 -3 -3 -3 -3 -0 2 1 0 1 0 0 0 0 1 1 1 1 1 0 -0 -1 -1 -0
-10 -11 -11 -10 -8 -7 -6 -5 -5 -5 -5 -4 -4 -3 -4 -3 -3 -4 -4 -3 -3 -3 -3 -3 -2 1 2 2 2 1 1 0 0 0 -1 -1 -1 0 1 -0 -0 -1 -1 -2
-10 -10 -10 -9 -8 -7 -6 -5 -5 -5 -4 -5 -3 -3 -4 -4 -4 -4 -4 -3 -3 -3 -3 -2 -1 1 2 2 2 2 2 1 1 0 -0 -0 -0 0 -0 -0 -0 -1 -2 -2
-9 -9 -8 -7 -7 -7 -7 -6 -5 -5 -4 -3 -2 -2 -4 -5 -5 -4 -4 -3 -3 -3 -2 -1 1 1 1 2 2 1 1 1 1 1 1 1 0 0 -0 -1 -1 -2 -2 -3
-8 -8 -7 -7 -7 -7 -7 -6 -6 -5 -4 -4 -4 -4 -4 -5 -4 -4 -3 -3 -2 -2 -2 1 1 1 1 1 1 2 1 1 1 1 1 0 0 -0 -1 -1 -2 -2 -3 -4
-7 -7 -7 -7 -7 -7 -6 -6 -5 -5 -4 -4 -5 -4 -5 -5 -4 -4 -3 -3 -2 -1 0 1 1 1 1 1 1 1 2 1 0 -0 -0 -0 -0 -1 -1 -2 -3 -3 -4 -4
-7 -7 -7 -7 -7 -7 -6 -5 -5 -5 -4 -3 -5 -5 -5 -5 -4 -4 -3 -2 -0 0 1 0 0 1 1 1 1 1 1 1 1 -0 -1 -1 -1 -1 -2 -2 -3 -4 -4 -4
-7 -7 -7 -7 -6 -7 -6 -6 -6 -5 -6 -6 -5 -5 -4 -4 -4 -4 -3 -1 -0 0 0 -0 -0 0 0 0 1 1 1 0 0 -1 -1 -2 -2 -2 -3 -3 -3 -4 -4 -4